Temp
5 5 5 5 4 3 3 2 2 2 2 2 1 1 1 1 -1 -1 -1 -1 -2 -3 -3 -3 -3 -4 -4 -5 -5 -6 -6 -7 -7 -7 -8 -9 -9 -10 -10 -11 -12 -14 -14
5 4 4 4 4 3 3 2 2 2 2 2 2 1 1 -0 -2 -2 -2 -2 -2 -3 -4 -3 -4 -5 -5 -6 -6 -6 -7 -8 -9 -8 -9 -9 -9 -10 -11 -12 -13 -14 -15
4 4 4 4 4 3 2 1 2 2 2 1 1 0 -0 -2 -2 -2 -2 -2 -2 -4 -4 -4 -5 -5 -6 -6 -7 -8 -8 -9 -9 -9 -9 -9 -10 -11 -11 -12 -13 -15 -15
4 3 5 5 4 2 2 2 1 1 1 1 1 -1 -1 -1 -2 -2 -2 -3 -3 -4 -4 -5 -5 -6 -7 -7 -8 -8 -9 -9 -9 -9 -9 -9 -10 -10 -11 -12 -13 -15 -15
4 4 4 4 3 2 2 2 2 1 1 0 0 -1 -1 -2 -2 -2 -3 -3 -4 -4 -5 -5 -6 -7 -7 -8 -8 -9 -9 -9 -9 -10 -10 -10 -10 -10 -12 -14 -15 -15 -16
4 4 4 3 3 2 2 2 2 1 1 1 -0 -1 -2 -1 -2 -3 -3 -4 -5 -5 -6 -7 -7 -8 -8 -8 -9 -9 -9 -10 -10 -10 -10 -11 -10 -11 -12 -14 -16 -15 -16
3 3 3 3 3 3 2 2 2 1 0 -1 -1 -1 -2 -2 -3 -4 -4 -5 -6 -6 -7 -7 -8 -8 -8 -8 -9 -9 -9 -10 -10 -11 -11 -11 -11 -12 -13 -14 -16 -16 -17
3 3 3 3 3 3 3 2 1 0 -1 -1 -1 -1 -2 -2 -4 -4 -5 -6 -7 -7 -8 -8 -8 -8 -9 -9 -9 -9 -10 -10 -11 -11 -12 -11 -12 -12 -13 -15 -16 -16 -17
3 3 3 3 3 3 2 2 -0 -1 -1 -1 -2 -2 -4 -5 -5 -5 -6 -7 -7 -8 -8 -8 -8 -9 -9 -9 -10 -10 -10 -11 -11 -11 -12 -12 -12 -13 -14 -15 -17 -16 -17
4 3 3 3 3 3 1 -1 -2 -2 -2 -3 -3 -4 -5 -5 -6 -6 -7 -8 -8 -8 -8 -9 -9 -10 -10 -10 -10 -11 -11 -11 -11 -12 -12 -12 -13 -14 -15 -15 -17 -17 -17
3 3 3 2 2 1 -1 -2 -2 -2 -3 -4 -5 -5 -5 -6 -7 -8 -8 -9 -9 -9 -9 -10 -10 -10 -11 -11 -11 -11 -12 -12 -12 -12 -13 -13 -14 -15 -15 -16 -17 -17 -17
2 2 2 1 0 -1 -2 -2 -2 -4 -5 -5 -5 -5 -6 -6 -8 -9 -11 -10 -10 -10 -10 -10 -10 -11 -11 -12 -12 -12 -13 -13 -13 -13 -14 -14 -15 -16 -17 -17 -17 -17 -18
2 1 1 0 -1 -2 -2 -2 -4 -5 -5 -5 -6 -6 -7 -9 -11 -12 -12 -12 -11 -10 -10 -11 -11 -11 -12 -12 -13 -13 -14 -14 -14 -14 -15 -15 -16 -17 -17 -17 -17 -18 -18
1 1 -0 -1 -1 -2 -3 -4 -5 -6 -6 -6 -7 -9 -11 -11 -11 -12 -12 -12 -11 -11 -11 -12 -12 -12 -13 -13 -13 -14 -14 -15 -15 -15 -16 -16 -17 -18 -17 -18 -18 -18 -18
0 -0 -1 -2 -3 -4 -5 -5 -6 -6 -7 -7 -9 -11 -12 -11 -13 -13 -13 -13 -12 -12 -12 -12 -13 -13 -13 -14 -14 -15 -15 -15 -16 -17 -17 -18 -18 -18 -18 -18 -18 -18 -18
-0 -1 -3 -4 -5 -5 -5 -6 -7 -8 -9 -10 -10 -10 -12 -13 -14 -13 -13 -14 -13 -13 -13 -13 -14 -14 -14 -15 -15 -15 -16 -16 -17 -17 -18 -19 -19 -19 -18 -18 -18 -18 -18
-2 -4 -5 -5 -5 -5 -6 -8 -9 -9 -10 -11 -11 -11 -12 -13 -13 -13 -14 -14 -14 -14 -14 -14 -15 -15 -16 -16 -16 -17 -17 -18 -18 -19 -19 -19 -19 -19 -19 -19 -19 -19 -18
-5 -5 -5 -6 -8 -8 -8 -8 -8 -9 -10 -11 -12 -12 -12 -12 -13 -14 -14 -14 -14 -15 -15 -16 -16 -17 -17 -17 -18 -18 -19 -19 -20 -20 -21 -21 -20 -20 -19 -20 -19 -19 -19
-6 -8 -8 -8 -8 -8 -9 -9 -10 -11 -11 -12 -12 -12 -12 -13 -14 -14 -15 -15 -15 -16 -16 -17 -18 -18 -19 -19 -20 -20 -20 -21 -21 -21 -22 -21 -21 -21 -21 -20 -19 -19 -19
-8 -8 -9 -9 -9 -10 -10 -11 -11 -12 -13 -13 -13 -14 -14 -15 -15 -16 -16 -17 -17 -18 -18 -18 -19 -20 -20 -21 -21 -21 -22 -22 -22 -22 -22 -22 -22 -22 -22 -21 -20 -20 -19
-9 -10 -10 -10 -11 -11 -12 -12 -13 -13 -13 -14 -15 -15 -15 -16 -17 -17 -17 -18 -18 -19 -19 -20 -20 -21 -21 -22 -22 -23 -23 -23 -23 -23 -23 -23 -22 -22 -22 -21 -20 -20 -19
-10 -11 -11 -12 -12 -12 -13 -13 -14 -14 -15 -16 -16 -17 -17 -18 -18 -18 -19 -19 -20 -20 -21 -22 -22 -22 -23 -23 -23 -23 -24 -24 -24 -23 -23 -23 -23 -22 -22 -22 -21 -20 -20
-11 -12 -12 -13 -13 -14 -14 -15 -15 -16 -16 -17 -18 -18 -19 -19 -20 -20 -20 -21 -21 -22 -22 -23 -23 -24 -24 -24 -24 -24 -24 -24 -24 -24 -23 -23 -23 -23 -22 -22 -21 -21 -21
-12 -13 -13 -14 -14 -15 -16 -16 -17 -18 -18 -19 -19 -19 -20 -21 -21 -22 -22 -22 -23 -23 -24 -24 -24 -24 -24 -25 -25 -25 -25 -24 -24 -24 -24 -23 -23 -23 -23 -22 -21 -21 -21
-14 -14 -15 -16 -16 -17 -17 -18 -19 -19 -20 -20 -21 -21 -22 -22 -23 -23 -23 -24 -24 -24 -25 -25 -25 -25 -25 -25 -25 -25 -25 -25 -25 -25 -24 -24 -23 -23 -23 -22 -22 -21 -21
-15 -16 -16 -17 -17 -18 -19 -20 -21 -21 -22 -22 -23 -23 -23 -24 -24 -24 -24 -25 -25 -25 -25 -26 -26 -26 -26 -26 -26 -26 -25 -25 -25 -25 -25 -24 -24 -23 -23 -22 -22 -21 -21
Height
3087 3089 3090 3091 3091 3091 3092 3093 3096 3097 3098 3098 3098 3098 3096 3092 3092 3093 3090 3089 3089 3089 3087 3084 3083 3081 3078 3076 3073 3070 3067 3063 3057 3054 3051 3049 3044 3040 3036 3031 3026 3021 3017
3080 3080 3082 3083 3084 3083 3084 3087 3090 3091 3091 3091 3091 3090 3089 3085 3086 3086 3083 3082 3082 3080 3079 3076 3074 3072 3069 3067 3062 3059 3056 3053 3047 3041 3039 3037 3033 3029 3023 3018 3015 3010 3006
3074 3074 3075 3075 3077 3078 3067 3077 3084 3084 3084 3083 3083 3083 3081 3079 3078 3076 3076 3075 3073 3072 3070 3067 3065 3062 3060 3056 3052 3049 3045 3042 3038 3033 3028 3026 3022 3017 3012 3006 3003 2998 2994
3067 3068 3069 3068 3068 3070 3074 3074 3076 3076 3076 3076 3076 3073 3073 3071 3071 3069 3069 3067 3065 3063 3061 3059 3056 3054 3050 3048 3044 3041 3037 3033 3030 3025 3020 3015 3012 3008 3001 2996 2991 2987 2981
3064 3064 3065 3062 3064 3062 3066 3069 3069 3069 3069 3068 3066 3065 3064 3064 3063 3061 3060 3058 3056 3054 3052 3050 3047 3045 3042 3038 3034 3029 3026 3022 3018 3014 3008 3003 2999 2993 2988 2982 2976 2973 2970
3059 3058 3059 3059 3059 3061 3061 3062 3062 3062 3061 3059 3057 3057 3058 3054 3053 3050 3050 3049 3048 3046 3043 3041 3038 3036 3032 3028 3024 3020 3016 3011 3007 3001 2995 2989 2985 2979 2974 2968 2964 2959 2957
3052 3052 3051 3052 3052 3052 3053 3052 3052 3051 3050 3050 3050 3049 3047 3045 3044 3042 3042 3041 3039 3037 3034 3031 3029 3026 3023 3018 3015 3011 3007 3003 2997 2990 2984 2978 2972 2967 2960 2955 2953 2949 2946
3043 3043 3043 3043 3044 3043 3042 3043 3042 3042 3043 3042 3041 3040 3036 3037 3035 3035 3034 3031 3029 3026 3024 3021 3018 3015 3012 3007 3003 2999 2996 2992 2986 2979 2972 2966 2959 2953 2947 2942 2939 2937 2936
3034 3034 3034 3034 3034 3035 3035 3035 3034 3034 3034 3034 3032 3031 3029 3028 3026 3024 3024 3022 3019 3017 3015 3011 3008 3004 3000 2996 2991 2987 2982 2979 2973 2966 2960 2953 2947 2940 2934 2929 2927 2927 2926
3028 3027 3027 3027 3026 3026 3026 3026 3028 3027 3026 3025 3024 3022 3020 3018 3016 3015 3013 3011 3009 3007 3004 3001 2997 2993 2989 2984 2978 2973 2968 2965 2958 2954 2949 2943 2935 2929 2923 2917 2917 2916 2917
3022 3021 3020 3019 3018 3018 3017 3018 3019 3018 3018 3017 3014 3012 3010 3009 3006 3004 3003 3001 2999 2996 2993 2990 2987 2982 2976 2971 2965 2960 2954 2950 2945 2939 2935 2930 2923 2917 2913 2909 2908 2907 2908
3015 3014 3012 3012 3011 3010 3011 3011 3009 3008 3008 3008 3005 3001 2999 2996 2995 2995 2993 2991 2988 2986 2982 2979 2975 2969 2964 2959 2953 2947 2941 2936 2931 2926 2921 2916 2912 2908 2904 2901 2901 2900 2900
3007 3006 3005 3004 3003 3003 3002 3001 3001 3001 3001 2999 2995 2991 2989 2986 2985 2983 2982 2979 2977 2974 2969 2966 2960 2955 2951 2946 2941 2935 2929 2923 2918 2913 2908 2905 2901 2898 2896 2894 2892 2892 2892
2999 2998 2997 2996 2995 2993 2993 2993 2992 2990 2988 2986 2984 2981 2977 2975 2974 2972 2970 2967 2964 2960 2956 2953 2947 2942 2938 2934 2929 2922 2916 2911 2906 2901 2897 2893 2891 2889 2888 2886 2885 2884 2884
2991 2990 2989 2987 2986 2985 2984 2982 2979 2976 2975 2974 2971 2969 2966 2964 2963 2961 2958 2956 2952 2947 2944 2940 2935 2930 2926 2921 2916 2910 2905 2899 2895 2890 2885 2882 2881 2880 2879 2878 2877 2877 2877
2982 2981 2980 2978 2977 2975 2973 2969 2968 2966 2963 2961 2960 2958 2955 2953 2952 2949 2946 2942 2938 2934 2930 2926 2920 2916 2911 2906 2902 2897 2891 2887 2882 2878 2874 2871 2870 2870 2870 2868 2868 2869 2869
2973 2973 2972 2970 2968 2964 2961 2959 2958 2959 2957 2955 2951 2948 2946 2945 2941 2938 2934 2929 2925 2921 2916 2911 2906 2902 2897 2892 2887 2883 2878 2874 2869 2866 2863 2860 2858 2859 2860 2860 2860 2861 2861
2967 2965 2963 2960 2959 2959 2959 2956 2953 2950 2947 2945 2941 2939 2936 2933 2930 2927 2922 2917 2914 2909 2903 2898 2893 2887 2882 2878 2874 2870 2866 2862 2858 2855 2852 2850 2848 2847 2849 2850 2851 2852 2854
2961 2960 2959 2958 2956 2953 2950 2947 2944 2940 2937 2934 2931 2927 2924 2921 2917 2912 2908 2902 2898 2894 2889 2884 2879 2874 2869 2865 2860 2856 2853 2850 2847 2844 2842 2840 2839 2837 2838 2840 2843 2842 2845
2955 2954 2952 2950 2947 2945 2941 2938 2934 2931 2928 2924 2920 2916 2911 2907 2903 2898 2893 2888 2884 2879 2874 2869 2865 2860 2856 2852 2848 2845 2842 2839 2837 2834 2832 2831 2830 2829 2829 2830 2833 2835 2837
2948 2946 2944 2942 2939 2936 2933 2929 2925 2922 2917 2912 2908 2904 2899 2895 2891 2886 2881 2875 2870 2865 2860 2856 2852 2847 2843 2839 2836 2833 2831 2828 2826 2824 2823 2822 2822 2821 2820 2822 2825 2827 2830
2941 2939 2936 2933 2930 2927 2923 2918 2914 2910 2905 2900 2896 2891 2886 2881 2876 2871 2865 2860 2855 2851 2847 2843 2839 2835 2831 2828 2825 2823 2821 2819 2817 2815 2814 2813 2813 2813 2813 2815 2817 2820 2823
2933 2931 2927 2924 2920 2916 2912 2907 2902 2897 2892 2887 2882 2877 2872 2867 2862 2856 2852 2847 2842 2838 2834 2830 2827 2824 2820 2817 2815 2813 2811 2809 2807 2805 2805 2804 2805 2805 2806 2807 2810 2813 2816
2925 2921 2917 2912 2908 2903 2899 2894 2889 2883 2878 2872 2867 2862 2857 2852 2847 2842 2838 2834 2830 2826 2823 2820 2816 2813 2811 2808 2806 2804 2802 2800 2798 2797 2796 2796 2796 2797 2799 2800 2803 2806 2810
2915 2910 2906 2900 2895 2890 2884 2879 2873 2868 2862 2857 2853 2848 2843 2838 2834 2830 2826 2822 2819 2816 2812 2809 2806 2804 2801 2799 2797 2795 2793 2792 2790 2788 2788 2788 2789 2790 2791 2793 2796 2800 2804
2903 2898 2892 2886 2881 2876 2870 2864 2859 2853 2848 2843 2839 2834 2830 2826 2822 2818 2815 2812 2809 2806 2803 2800 2797 2795 2793 2791 2789 2787 2786 2784 2782 2781 2780 2780 2781 2782 2784 2787 2790 2794 2798
Wind_Speed
26 28 28 26 27 27 26 28 26 26 26 27 26 23 28 25 27 29 30 30 32 32 26 36 34 31 33 33 32 31 32 33 37 38 37 36 40 43 45 46 47 48 45
21 26 28 32 30 33 28 25 26 27 29 28 27 26 28 22 22 23 27 31 31 31 29 30 30 32 33 32 31 32 33 31 36 41 41 40 42 45 48 48 49 50 47
24 24 31 35 38 34 31 22 26 25 26 27 26 30 24 25 25 32 31 36 37 31 31 30 31 32 31 30 31 32 33 34 37 41 43 44 45 47 49 50 50 49 48
27 27 28 30 34 29 30 27 27 29 30 28 33 29 26 29 30 35 34 35 32 29 29 31 30 30 30 31 32 33 35 37 38 40 43 45 46 47 49 49 50 46 46
28 28 26 26 27 24 28 26 30 31 31 35 36 29 29 26 37 32 36 32 28 30 31 31 30 30 30 32 35 37 39 40 41 42 46 48 49 50 51 48 46 45 45
26 24 23 24 26 28 31 31 33 31 37 35 32 31 35 34 39 28 30 30 30 31 30 30 29 30 31 34 37 39 41 41 42 45 48 51 51 52 52 48 44 45 47
26 26 27 28 28 32 32 32 33 35 33 33 34 39 40 32 37 27 29 30 30 30 30 30 30 32 34 37 39 40 41 41 43 47 49 50 52 51 52 49 42 51 43
30 31 31 32 33 35 33 31 33 31 33 36 34 38 31 41 34 29 29 30 30 29 29 31 34 35 37 40 42 43 43 42 43 45 48 50 51 50 49 47 43 42 42
23 24 26 29 31 31 34 32 29 27 30 34 33 38 39 34 31 31 29 29 29 30 32 34 36 38 40 41 43 45 45 44 44 46 47 48 47 47 44 41 34 35 35
20 20 22 24 27 27 25 23 25 28 33 34 35 34 30 31 32 31 30 31 31 33 34 35 36 39 41 43 44 46 47 46 47 46 45 45 44 41 38 37 33 30 32
21 23 24 24 24 22 22 23 28 33 31 31 32 32 33 35 34 31 30 30 32 35 36 36 38 40 42 43 44 46 47 48 47 47 45 43 41 37 34 27 26 31 32
25 26 25 24 22 22 24 28 31 31 29 30 33 34 37 37 33 30 30 31 34 37 38 39 41 42 43 43 44 45 46 46 46 45 43 41 38 33 30 27 28 27 28
26 26 25 24 25 27 30 32 30 30 31 34 34 37 36 34 32 30 31 34 36 38 40 41 43 44 44 43 44 44 45 45 43 42 41 38 34 29 27 28 27 23 23
29 28 27 29 30 33 33 32 32 33 35 36 35 31 34 35 31 31 32 34 37 39 41 42 43 44 45 44 44 44 44 44 43 41 39 35 29 28 23 23 23 23 23
33 32 32 33 34 34 34 35 36 38 37 35 36 34 32 32 30 31 33 36 38 42 44 45 45 45 46 45 43 43 42 42 40 38 36 33 30 27 26 25 24 23 22
38 37 36 36 36 38 40 40 37 36 36 35 33 34 31 31 31 33 35 38 41 44 45 46 47 47 47 46 45 44 43 41 39 36 34 32 31 32 27 20 24 25 25
42 39 38 39 41 43 43 40 36 33 33 33 33 33 33 33 33 33 37 41 44 46 47 47 47 47 46 46 45 44 42 40 37 35 33 31 30 33 31 20 24 24 23
39 41 42 41 37 33 34 35 36 37 35 32 30 32 34 34 33 36 39 43 45 45 46 46 46 46 46 45 43 41 39 36 34 32 31 29 29 29 40 34 29 19 21
36 32 28 29 32 34 34 33 32 33 34 33 34 37 38 39 40 41 43 46 47 47 47 46 45 45 44 42 40 38 36 33 32 30 29 27 26 26 29 26 23 17 22
24 27 29 31 31 30 31 32 32 32 34 36 37 38 40 42 44 45 46 48 48 48 47 46 45 44 42 40 37 35 33 31 29 28 28 26 24 22 23 22 24 26 25
25 26 28 29 30 30 31 32 34 35 37 39 40 41 43 44 45 46 47 48 47 47 46 45 42 40 39 36 34 32 30 29 28 27 26 25 23 21 22 21 22 23 20
25 26 27 29 31 33 35 37 38 39 40 42 43 45 46 47 48 48 48 47 46 44 42 40 38 36 34 32 31 30 28 27 26 26 25 24 22 21 19 23 21 23 21
27 30 32 34 36 37 39 41 42 44 45 46 46 46 46 46 46 45 45 43 42 40 37 35 33 31 31 30 29 28 27 26 25 25 24 22 21 20 19 20 21 20 21
32 35 37 39 41 42 43 44 45 45 46 47 47 46 45 44 43 42 40 38 36 34 33 31 30 30 29 27 26 25 25 25 25 24 23 21 20 19 18 19 24 18 22
36 38 40 42 44 45 46 46 47 46 46 45 43 42 41 39 38 36 35 33 32 30 29 29 29 28 27 25 24 23 24 24 24 24 22 20 18 18 18 18 23 22 21
41 43 44 45 45 45 45 45 44 43 42 41 39 38 36 35 34 33 31 30 29 28 27 26 25 25 23 22 22 23 23 22 22 21 21 19 17 18 18 17 22 24 20
Wind_Direction
256 260 256 253 253 255 259 259 259 262 268 275 284 278 294 308 268 295 291 283 276 305 283 272 280 288 289 292 288 288 288 292 294 300 303 306 305 305 303 302 302 298 294
284 280 263 261 252 253 248 254 260 262 267 279 279 283 289 302 281 298 293 285 292 306 282 282 288 285 288 287 291 294 294 295 297 303 305 307 305 303 302 301 300 297 294
280 271 269 268 259 253 255 273 269 270 267 270 269 282 289 299 306 279 271 284 290 287 284 290 288 288 289 294 292 291 294 297 299 300 303 304 303 302 300 299 297 295 294
269 263 275 272 266 254 269 271 268 269 273 275 280 286 279 289 293 281 280 277 287 285 288 287 288 287 288 288 289 291 292 293 295 297 299 300 300 301 298 296 294 290 294
267 270 278 278 273 267 269 270 270 267 278 283 279 290 268 293 289 273 278 285 284 286 289 289 286 286 288 290 291 293 296 297 298 299 299 300 303 303 301 297 293 290 294
268 270 271 266 266 266 268 268 266 276 269 277 276 271 286 265 278 274 291 291 284 286 285 284 284 287 289 290 293 295 296 296 298 300 301 301 303 301 299 296 296 287 293
275 273 276 275 271 266 266 263 256 258 267 266 269 280 285 275 280 285 285 282 283 283 283 284 287 288 291 293 293 292 293 296 298 298 300 300 299 300 297 292 281 282 289
279 273 269 265 264 265 262 260 258 255 261 268 266 258 267 280 287 289 284 282 284 284 284 287 289 291 293 293 294 295 296 296 297 297 298 300 299 299 295 291 283 275 284
268 265 263 262 264 267 264 267 266 268 259 263 255 274 278 284 284 284 282 281 281 282 286 288 291 293 294 295 295 296 297 300 297 298 300 300 300 299 297 289 280 279 278
272 273 273 271 269 268 268 260 255 257 253 258 267 275 280 276 280 280 280 283 285 288 289 290 293 295 295 295 297 297 298 299 298 300 301 301 301 302 297 287 279 269 268
280 283 282 281 279 277 271 257 254 259 265 266 283 271 275 281 278 279 284 287 290 289 291 292 294 295 295 296 297 298 299 300 300 301 302 303 303 303 299 286 279 262 270
287 288 288 287 282 274 266 261 265 270 269 274 270 271 280 276 277 282 288 289 288 291 291 294 295 295 296 298 299 298 298 299 299 301 302 302 301 300 294 279 275 270 265
284 286 285 280 273 267 266 272 270 267 266 266 269 271 271 274 280 283 283 286 290 291 293 296 297 298 299 300 299 299 298 299 299 299 298 296 291 293 287 283 280 269 268
281 280 278 273 271 271 270 270 272 273 261 263 266 269 268 272 278 283 286 290 292 294 296 297 298 297 299 300 299 299 299 299 299 298 296 292 282 284 284 282 274 266 267
276 272 268 267 266 264 261 258 254 253 258 264 264 270 273 280 284 287 289 290 293 294 296 296 296 297 298 299 298 298 298 297 296 294 291 284 270 277 274 273 269 266 267
270 265 261 260 259 259 251 248 253 258 261 264 271 280 279 281 281 284 289 292 294 296 297 297 297 299 300 300 300 300 298 298 296 294 291 284 268 268 280 259 260 262 263
265 260 260 261 258 252 250 254 262 277 288 279 270 276 284 282 283 291 293 295 296 296 296 297 298 299 299 300 300 299 298 297 296 294 291 284 274 253 257 262 263 260 262
268 270 266 257 258 274 288 287 285 286 287 288 287 283 282 289 293 293 293 293 292 294 295 296 298 298 299 299 298 297 296 295 293 291 288 287 282 270 256 267 273 258 259
274 271 278 287 289 289 289 289 289 289 291 291 288 288 293 295 296 296 296 294 295 297 298 298 299 298 298 297 296 295 295 293 289 287 286 287 287 280 262 259 249 237 248
285 288 290 292 293 293 293 292 292 290 288 288 291 294 295 296 296 297 296 296 297 298 299 299 298 298 297 295 295 294 292 289 286 285 284 284 285 287 261 253 249 253 254
293 293 293 294 294 294 293 292 291 291 292 293 294 294 294 294 294 293 294 295 296 296 297 297 296 295 295 294 293 292 290 290 287 284 283 281 280 278 264 249 238 235 243
295 296 295 294 294 295 294 293 293 294 294 294 294 295 295 295 295 296 296 296 296 296 297 296 296 295 294 293 291 291 290 289 286 285 283 280 274 271 270 242 244 238 242
295 295 296 297 296 295 295 296 296 295 295 294 294 294 294 294 293 293 294 295 295 296 296 296 295 294 292 292 293 292 291 289 288 287 282 277 269 266 267 244 237 235 225
297 298 298 298 298 297 296 296 295 295 295 295 295 295 295 294 294 294 295 295 295 295 296 296 293 293 293 291 291 290 291 291 291 289 285 276 269 258 256 248 229 236 215
300 300 299 299 299 298 299 298 297 296 296 296 296 295 295 295 295 295 295 295 296 297 295 293 295 294 293 292 292 291 291 291 291 289 284 276 267 250 246 247 226 226 220
304 303 302 301 300 300 299 298 298 298 296 296 295 296 296 296 295 295 297 298 296 296 298 296 294 293 293 293 293 293 293 292 290 287 284 276 261 245 240 242 226 218 221